Location: Ku?niki
(51.4449°N, 17.8974°E)
Time: 06:49:05
(UTC+00:00)

Cosmos 2369 Rocket - Pass Details

Date: 18 September 2020
Orbit: 827 x 854 km, 71.0° (Epoch: 18 October)

Event Time Altitude Azimuth Distance (km) Brightness Sun altitude
Exits shadow 22:59:11 29° 34° (NE) 1,505 3.8 -37.0°
Drops below altitude 10° 23:01:50 10° 32° (NNE) 2,472 5.2 -37.0°
Sets 23:04:18 0° 31° (NNE) 3,415 6.2 -37.0°
